Wetbulb
55.87 55.64 55.67 55.74 56.00 55.94 56.09 56.41 56.73 56.95 57.23 57.57 58.06 58.58 58.82 58.74 58.41 56.94 53.29 58.68 58.85 64.70 62.23 56.66 55.08 54.86 54.89 53.96 52.68 51.12 49.01 46.02 46.45 46.32 48.04 50.66 50.74 52.81 61.54 64.46 64.26 65.85 68.01 68.63 71.16
55.25 55.27 55.20 55.39 55.50 55.63 55.78 56.02 56.45 56.63 56.88 57.11 57.84 58.23 58.27 58.47 55.46 53.10 62.17 65.43 66.11 65.46 54.39 54.74 54.38 54.84 53.08 51.56 52.49 51.95 48.43 46.78 48.69 48.59 49.56 51.42 50.19 51.58 57.07 62.91 64.15 66.75 68.43 70.38 71.17
54.91 54.93 54.78 54.85 55.15 55.17 55.24 55.66 55.98 56.43 56.67 56.84 57.28 57.62 57.96 58.29 52.40 55.00 65.50 66.03 66.51 63.93 55.94 56.27 56.82 55.42 51.80 51.02 50.44 48.97 48.22 49.40 50.05 51.19 50.91 50.93 51.48 51.28 58.03 61.46 64.40 64.73 68.02 69.10 70.21
54.41 54.44 54.48 54.40 54.63 54.74 54.73 55.23 55.74 56.22 56.22 56.29 56.69 57.32 58.11 56.80 48.54 56.30 68.49 67.29 67.16 58.36 56.62 55.67 55.37 53.39 50.83 49.29 49.99 47.54 49.49 49.85 50.37 50.29 50.49 50.33 51.88 51.11 59.12 64.01 66.08 66.68 69.62 68.69 69.20
54.24 54.23 54.15 54.10 54.24 54.36 54.38 54.79 55.16 55.41 55.59 55.79 56.44 57.24 56.98 51.56 50.96 64.09 69.48 67.67 58.24 56.53 55.31 55.35 54.14 53.07 50.31 49.76 48.85 48.24 48.96 49.16 50.78 50.75 50.31 49.84 50.46 50.74 51.70 54.31 55.05 58.56 69.11 68.39 68.81
54.45 54.38 53.94 53.80 53.92 54.39 54.62 54.92 54.88 54.71 55.15 55.64 56.58 57.40 55.23 47.50 55.07 64.32 62.94 57.15 57.14 56.16 54.81 54.93 54.98 54.78 51.73 50.31 49.67 50.16 49.82 50.65 51.49 52.21 50.39 48.95 49.31 49.42 53.04 54.49 56.55 64.89 67.15 69.01 68.56
53.93 53.97 54.05 53.91 54.15 54.27 54.70 54.53 54.55 54.57 55.34 56.04 57.29 57.77 52.74 50.85 57.38 61.86 58.89 57.29 56.95 56.01 53.85 54.91 56.14 53.52 52.66 50.15 51.44 50.46 48.93 50.42 51.12 51.55 50.96 50.81 48.32 49.43 53.51 53.35 55.00 60.42 65.36 68.99 69.48
53.64 53.45 53.45 53.89 54.09 54.34 54.25 54.30 54.77 54.99 55.85 57.03 58.19 57.23 50.17 55.40 57.78 58.64 58.64 55.90 56.56 56.57 55.68 56.59 56.25 53.98 52.11 51.90 50.01 48.62 48.16 45.75 49.78 49.97 50.20 50.44 46.82 52.07 53.33 52.57 53.44 58.04 61.31 64.79 69.24
53.31 53.10 53.10 53.68 53.72 53.78 53.89 54.34 56.48 56.91 58.29 58.59 55.83 52.30 50.80 58.73 55.11 57.78 58.75 55.68 55.18 55.22 55.80 55.96 54.47 51.46 50.52 48.39 46.46 46.41 43.70 44.53 46.76 49.90 50.20 49.42 48.56 51.99 53.12 52.79 52.89 54.12 58.02 60.57 63.79
53.19 52.70 52.74 53.30 53.51 53.42 53.51 54.51 58.94 59.04 58.27 58.72 57.08 51.60 54.33 52.84 56.46 55.94 57.06 56.34 54.59 54.55 53.06 52.62 51.86 49.83 48.94 48.22 41.40 42.63 43.43 45.31 45.73 48.70 49.63 48.60 48.87 51.00 52.32 50.78 51.35 52.21 52.78 53.63 54.36
53.02 52.41 52.35 52.80 53.15 52.91 53.36 55.71 53.84 52.96 55.43 53.42 52.92 51.96 51.78 56.23 58.80 55.58 56.18 55.01 54.60 53.46 49.61 49.92 48.42 46.02 47.88 48.63 47.43 46.53 45.16 44.91 48.26 50.04 48.89 48.42 48.34 50.11 51.86 52.63 52.22 53.29 54.08 55.08 55.44
52.58 52.35 52.58 52.64 52.82 52.98 52.32 52.92 52.16 53.25 49.35 53.09 53.76 53.24 54.34 55.90 52.39 54.75 56.66 52.75 51.47 48.69 49.34 48.29 46.11 49.64 49.21 48.37 46.82 46.20 45.22 45.94 48.31 48.59 49.36 47.64 48.04 49.56 51.82 52.29 53.52 53.87 54.03 54.71 56.20
51.65 51.80 52.28 52.41 52.32 53.16 54.14 53.90 54.61 53.52 49.66 50.23 52.16 52.13 53.12 54.51 51.31 52.51 55.07 52.81 50.76 48.14 48.23 46.87 48.19 48.83 48.10 47.14 45.88 46.59 45.43 45.58 45.87 46.92 47.82 47.97 46.95 47.53 51.22 52.88 53.68 54.40 54.95 55.23 55.19
51.11 51.34 51.93 51.45 49.89 49.50 54.00 52.85 52.78 53.43 44.06 44.50 50.56 53.31 53.94 53.46 49.56 55.26 56.14 53.74 50.13 48.78 47.85 47.69 50.23 47.96 47.10 46.42 47.71 44.78 48.40 47.29 45.52 45.59 43.15 46.98 41.47 46.13 49.39 49.79 51.71 52.84 53.80 54.31 55.30
50.86 51.55 51.65 51.20 50.07 52.47 52.81 52.38 54.11 53.57 34.91 45.70 51.13 57.40 54.36 50.84 51.91 52.27 55.00 52.77 50.02 48.10 48.23 47.04 47.01 46.67 45.76 47.24 48.46 46.66 48.59 47.63 46.83 46.17 44.85 44.26 43.28 45.44 48.48 47.33 49.24 50.65 51.93 53.41 54.91
50.77 51.43 51.11 49.67 49.33 52.09 51.87 52.53 55.53 43.07 34.08 46.11 51.15 50.01 49.85 50.90 51.34 52.19 52.51 54.13 52.51 48.88 48.04 48.98 49.75 48.85 49.17 49.25 49.20 49.38 47.26 46.11 45.22 45.01 40.18 44.89 44.10 43.68 46.42 46.86 48.04 49.47 50.42 51.79 53.19
50.64 50.40 50.02 50.32 49.12 52.38 52.19 54.31 42.44 36.33 46.20 44.86 46.29 49.21 47.78 46.90 48.18 49.22 47.83 47.39 46.14 43.97 44.28 47.45 47.76 48.97 49.71 47.58 48.96 48.07 46.44 40.56 39.00 38.99 38.81 44.39 42.24 45.11 46.72 48.23 48.05 47.92 49.60 51.53 53.48
49.76 48.15 49.09 51.72 52.17 50.92 55.25 48.87 35.66 40.24 43.90 47.84 47.15 47.69 45.03 46.60 47.27 45.90 45.76 43.61 46.49 45.53 44.07 42.33 41.23 47.16 49.42 48.14 47.07 47.22 47.03 41.20 34.73 36.56 39.83 42.45 40.69 43.33 47.28 48.50 48.67 49.37 50.31 51.40 52.01
47.68 47.84 52.12 52.99 51.03 53.39 51.05 40.47 38.66 43.10 45.81 44.79 46.54 43.55 43.37 45.22 45.83 44.72 42.16 41.63 44.03 44.87 42.20 42.03 41.62 47.91 47.74 48.01 47.52 45.23 43.69 45.90 41.12 40.03 39.68 42.62 41.42 44.59 46.16 45.61 46.64 47.90 49.17 49.79 50.91
44.47 45.25 50.10 51.14 50.88 53.17 46.12 38.88 43.92 46.70 44.85 45.92 41.73 43.15 40.76 41.42 43.10 44.45 42.38 42.44 42.21 44.85 47.13 42.83 39.66 45.70 47.51 48.47 47.09 45.80 45.90 41.39 42.69 34.81 33.57 38.42 39.68 42.65 42.23 43.40 45.23 46.10 47.41 49.10 50.64
45.35 45.65 51.58 50.17 53.02 48.25 41.07 40.97 43.78 45.56 46.37 43.56 42.11 40.58 40.07 39.14 41.40 41.48 40.83 43.37 43.31 46.01 46.06 44.76 43.23 42.46 46.06 42.19 40.72 43.18 42.69 41.36 41.10 39.97 36.20 35.19 39.16 45.18 43.42 44.61 44.53 45.91 46.95 48.11 49.62
44.19 41.56 49.12 49.92 45.82 41.10 41.28 40.46 42.12 43.91 45.14 44.22 43.69 41.76 40.50 39.45 39.38 39.02 37.94 40.54 43.96 43.96 40.50 43.42 42.35 37.09 39.98 43.68 41.61 41.71 40.41 40.47 37.28 36.69 37.80 37.02 39.05 45.42 45.28 45.72 46.17 46.01 46.80 48.19 49.57
41.45 41.27 49.29 49.31 40.27 39.83 41.26 41.18 42.66 42.87 42.71 42.45 41.60 42.33 42.18 39.87 37.61 39.90 40.03 42.78 44.03 43.39 40.67 41.28 37.18 32.68 33.71 37.10 39.83 38.35 38.28 38.05 38.11 37.96 36.07 34.56 38.22 45.48 45.06 44.90 46.38 45.51 46.60 47.80 48.83
42.04 38.67 43.35 43.14 41.23 39.08 37.65 38.99 39.93 44.41 42.91 42.77 41.62 42.60 41.21 39.78 40.82 39.19 39.78 41.70 42.83 44.61 44.38 43.09 38.39 36.05 31.90 34.67 37.64 35.17 36.47 37.94 37.34 33.88 34.83 35.00 36.61 41.92 43.75 42.21 45.16 46.06 47.16 47.79 48.35
40.93 37.33 37.81 35.80 38.19 37.88 38.17 38.54 38.14 38.78 43.07 42.69 40.82 40.82 39.83 37.23 37.71 37.38 39.02 39.45 41.15 42.37 41.19 40.50 34.34 36.19 37.29 37.18 36.56 36.30 36.23 36.78 35.28 36.75 33.08 36.25 35.51 39.24 41.80 42.38 45.50 46.05 46.78 46.59 46.28
39.08 37.80 40.14 37.80 37.31 37.13 37.55 37.19 37.17 38.01 39.14 38.81 38.92 39.85 40.19 38.14 38.84 36.95 39.02 38.45 38.17 40.49 39.37 38.42 33.84 34.01 32.35 35.37 35.04 33.46 36.10 36.52 36.81 36.92 36.21 36.62 35.97 41.81 44.45 45.87 44.59 44.78 45.10 45.09 45.64
41.02 41.24 39.84 36.24 36.02 35.91 36.96 36.12 36.99 38.78 40.61 41.19 39.91 38.77 38.00 39.42 42.01 43.10 43.93 42.29 41.55 39.90 38.59 37.75 35.49 32.56 28.67 33.44 34.08 30.58 34.63 35.39 35.64 37.54 37.05 33.98 39.36 43.12 42.25 42.52 43.67 44.74 45.09 45.02 45.41
MSLP
1018.57 1018.08 1017.61 1017.17 1016.75 1016.35 1015.97 1015.59 1015.31 1015.08 1014.85 1014.68 1014.57 1014.44 1014.39 1014.30 1014.05 1014.04 1012.58 1011.03 1011.16 1011.53 1011.85 1012.17 1012.21 1012.18 1012.15 1011.98 1012.07 1012.03 1011.37 1010.74 1010.50 1010.10 1009.29 1009.34 1008.91 1008.62 1008.55 1008.40 1008.73 1009.04 1009.15 1009.58 1010.13
1018.57 1018.04 1017.56 1017.09 1016.67 1016.20 1015.76 1015.41 1015.09 1014.84 1014.62 1014.44 1014.31 1014.22 1014.14 1014.08 1013.61 1012.48 1010.86 1010.86 1010.92 1011.29 1011.48 1011.60 1011.76 1011.93 1011.80 1011.90 1011.88 1011.45 1011.17 1010.69 1010.77 1010.32 1009.56 1009.12 1008.97 1008.58 1008.39 1008.28 1008.46 1008.81 1009.64 1009.97 1010.35
1018.63 1018.07 1017.55 1017.03 1016.55 1016.11 1015.67 1015.27 1014.93 1014.62 1014.37 1014.19 1014.10 1014.03 1013.95 1013.84 1012.80 1010.90 1010.47 1010.88 1010.99 1011.11 1011.14 1011.37 1011.51 1011.50 1011.48 1011.75 1011.77 1011.62 1011.00 1010.91 1010.61 1010.37 1009.96 1009.18 1008.63 1008.57 1008.22 1007.98 1008.02 1008.12 1009.16 1009.86 1010.26
1018.62 1018.02 1017.42 1016.87 1016.38 1015.96 1015.49 1015.08 1014.72 1014.39 1014.17 1013.98 1013.84 1013.77 1013.66 1013.43 1011.99 1010.48 1010.44 1010.77 1011.04 1011.10 1011.14 1011.32 1011.35 1011.22 1011.28 1011.26 1011.58 1011.34 1011.09 1010.90 1010.46 1010.29 1010.03 1009.35 1008.63 1008.25 1008.12 1007.59 1007.64 1008.14 1008.66 1009.54 1010.02
1018.54 1017.90 1017.27 1016.66 1016.04 1015.53 1015.12 1014.74 1014.40 1014.10 1013.88 1013.75 1013.64 1013.57 1013.50 1012.53 1010.77 1010.30 1010.27 1010.77 1011.07 1011.10 1010.98 1011.05 1011.00 1011.04 1010.91 1011.18 1011.41 1011.16 1010.82 1010.67 1010.26 1010.12 1010.05 1009.64 1008.76 1008.32 1007.74 1007.77 1007.97 1008.20 1008.68 1009.30 1009.97
1018.40 1017.71 1017.06 1016.39 1015.73 1015.11 1014.62 1014.27 1013.98 1013.80 1013.68 1013.57 1013.49 1013.46 1012.92 1011.52 1010.08 1010.29 1010.46 1010.71 1010.68 1010.77 1010.94 1011.03 1010.89 1011.00 1010.93 1011.06 1011.03 1010.88 1010.73 1010.36 1009.99 1009.56 1009.61 1009.43 1008.95 1008.86 1007.64 1007.61 1007.85 1008.18 1008.35 1008.80 1009.57
1018.25 1017.47 1016.71 1016.01 1015.32 1014.68 1014.12 1013.73 1013.47 1013.37 1013.38 1013.41 1013.42 1013.28 1012.34 1010.62 1010.06 1010.27 1010.39 1010.50 1010.59 1010.52 1010.69 1010.97 1010.98 1010.99 1010.97 1010.95 1011.05 1010.89 1010.58 1010.11 1009.57 1009.28 1009.02 1009.05 1008.83 1008.28 1007.78 1007.95 1007.96 1008.00 1008.37 1008.90 1009.27
1018.02 1017.19 1016.41 1015.72 1014.99 1014.29 1013.68 1013.22 1012.92 1012.95 1012.99 1013.15 1013.23 1012.92 1011.18 1009.96 1010.10 1010.32 1010.37 1010.52 1010.69 1010.69 1010.66 1010.85 1010.95 1010.88 1011.01 1011.24 1011.14 1010.74 1010.67 1009.74 1009.20 1009.25 1009.20 1009.02 1008.14 1007.80 1007.99 1008.22 1008.17 1008.22 1008.15 1008.55 1008.87
1017.72 1016.90 1016.14 1015.46 1014.76 1014.05 1013.52 1013.04 1012.65 1012.71 1012.85 1013.07 1013.11 1012.46 1010.31 1009.73 1009.80 1009.46 1009.79 1009.80 1010.34 1010.71 1010.74 1010.85 1010.90 1011.08 1011.24 1010.92 1010.82 1010.91 1010.18 1009.90 1009.37 1009.44 1009.13 1009.01 1008.09 1008.00 1008.26 1008.38 1008.30 1008.56 1008.53 1008.42 1008.64
1017.59 1016.67 1015.86 1015.13 1014.56 1013.90 1013.32 1013.02 1012.79 1012.70 1012.99 1012.85 1012.47 1012.26 1009.96 1009.17 1008.92 1009.30 1009.66 1009.58 1009.79 1010.21 1010.73 1010.86 1010.89 1010.88 1011.05 1010.69 1010.35 1010.52 1010.38 1010.16 1009.66 1009.60 1009.26 1008.94 1008.40 1008.54 1008.87 1008.82 1008.92 1009.14 1009.46 1009.54 1009.47
1017.33 1016.37 1015.51 1014.71 1014.16 1013.71 1013.08 1012.99 1013.12 1012.81 1012.34 1011.34 1010.74 1010.11 1009.25 1008.75 1008.60 1008.94 1009.28 1009.39 1009.58 1009.81 1010.04 1010.65 1010.34 1010.05 1010.22 1010.55 1010.69 1010.68 1010.53 1010.12 1009.56 1009.51 1009.33 1008.90 1008.74 1009.20 1009.67 1009.68 1009.88 1010.19 1010.50 1010.57 1010.51
1017.21 1016.03 1015.27 1014.42 1013.78 1013.42 1013.29 1012.77 1013.08 1013.07 1011.67 1010.16 1009.50 1009.41 1009.27 1008.89 1008.61 1008.68 1009.02 1009.15 1009.43 1009.51 1010.11 1010.44 1009.83 1009.89 1010.24 1010.54 1010.67 1010.62 1010.29 1009.71 1009.27 1009.30 1009.20 1009.15 1009.14 1010.06 1010.58 1011.09 1011.37 1011.38 1011.69 1011.88 1011.45
1017.19 1016.01 1014.77 1014.06 1013.42 1013.06 1013.04 1013.14 1013.13 1012.89 1012.05 1009.69 1009.18 1008.76 1008.60 1008.79 1008.54 1008.33 1008.66 1008.83 1009.01 1009.48 1009.60 1009.65 1009.46 1009.54 1009.94 1010.15 1010.30 1010.09 1009.79 1009.45 1009.25 1009.35 1009.36 1009.22 1009.39 1010.31 1011.39 1011.72 1011.89 1012.06 1012.32 1012.33 1012.22
1017.08 1015.96 1014.78 1013.66 1013.32 1013.80 1013.10 1013.14 1012.80 1012.82 1011.66 1009.61 1008.63 1008.27 1008.42 1008.33 1008.32 1008.10 1008.26 1008.46 1008.94 1008.94 1009.66 1009.68 1009.34 1009.59 1009.72 1009.62 1009.72 1009.37 1009.21 1009.24 1009.24 1009.14 1008.82 1009.36 1009.07 1010.30 1011.41 1011.96 1012.36 1012.70 1012.73 1012.62 1012.31
1016.89 1015.72 1014.90 1013.97 1014.05 1013.67 1013.42 1012.86 1012.49 1012.56 1011.18 1009.46 1008.38 1008.04 1008.34 1008.59 1008.11 1007.97 1007.91 1008.16 1008.25 1008.84 1009.53 1008.86 1008.86 1009.04 1009.10 1008.78 1009.13 1008.84 1009.17 1009.25 1009.07 1008.96 1009.14 1009.47 1009.51 1010.37 1011.40 1011.96 1012.67 1013.09 1013.33 1013.33 1013.14
1016.46 1015.59 1015.00 1014.49 1014.32 1013.53 1013.19 1012.70 1012.25 1011.95 1010.57 1009.32 1008.72 1008.50 1008.30 1008.29 1008.17 1008.24 1008.21 1008.26 1008.59 1009.00 1009.29 1008.89 1009.06 1008.90 1008.50 1008.71 1008.83 1008.99 1009.27 1009.60 1009.74 1009.38 1009.00 1009.07 1009.72 1010.32 1011.24 1012.28 1013.10 1013.63 1013.81 1013.93 1013.78
1016.58 1015.69 1015.05 1014.97 1014.52 1013.42 1013.04 1012.40 1012.29 1011.64 1010.91 1010.62 1009.98 1009.58 1009.48 1009.31 1008.96 1008.92 1009.03 1009.30 1009.71 1009.71 1009.39 1009.16 1008.90 1008.95 1008.84 1008.72 1009.06 1009.01 1009.04 1009.01 1009.26 1009.28 1008.71 1009.61 1010.29 1010.96 1012.49 1013.27 1013.87 1014.27 1014.41 1014.37 1014.16
1016.25 1015.65 1015.27 1014.64 1014.20 1013.74 1012.77 1012.57 1012.45 1012.15 1011.57 1011.50 1010.98 1010.36 1010.28 1010.48 1010.17 1010.19 1010.36 1010.90 1011.21 1010.93 1010.28 1009.73 1009.12 1009.17 1009.24 1008.87 1008.49 1008.73 1008.96 1008.68 1008.57 1008.87 1009.26 1010.59 1010.59 1011.99 1013.52 1014.34 1014.98 1015.18 1015.13 1014.84 1014.41
1016.53 1015.66 1014.95 1014.33 1013.97 1013.57 1013.08 1012.86 1012.64 1012.62 1012.41 1012.01 1011.55 1011.31 1011.24 1011.25 1011.20 1011.24 1011.75 1012.38 1012.66 1012.57 1011.73 1010.99 1010.28 1010.10 1009.79 1009.62 1009.71 1009.57 1009.65 1010.05 1009.69 1010.65 1010.29 1010.37 1012.56 1013.70 1014.29 1014.97 1015.40 1015.55 1015.39 1015.31 1015.02
1017.79 1016.59 1015.16 1014.49 1014.22 1013.69 1013.58 1013.38 1013.30 1013.09 1012.78 1012.45 1012.15 1012.45 1012.16 1012.28 1012.01 1011.99 1012.46 1013.36 1013.54 1013.47 1013.30 1013.26 1012.19 1011.44 1010.82 1010.55 1010.55 1010.43 1011.02 1010.91 1010.66 1010.56 1010.56 1011.10 1011.96 1012.02 1014.05 1014.88 1015.62 1015.87 1015.90 1015.74 1015.47
1018.04 1016.63 1014.99 1014.55 1014.17 1014.15 1014.33 1014.43 1013.93 1013.37 1013.30 1013.05 1012.89 1012.90 1013.13 1013.18 1013.04 1013.20 1013.53 1013.96 1013.99 1013.95 1014.45 1014.74 1014.40 1012.76 1012.34 1012.08 1012.04 1011.81 1011.65 1012.18 1012.26 1011.99 1011.34 1011.56 1011.79 1012.94 1014.21 1015.24 1015.76 1016.05 1016.13 1016.02 1015.76
1019.46 1017.56 1015.51 1014.62 1014.98 1015.88 1015.54 1015.46 1014.88 1013.80 1013.41 1013.29 1013.33 1013.35 1013.39 1013.77 1013.79 1014.07 1014.41 1014.62 1014.70 1014.76 1014.76 1015.48 1015.48 1014.53 1013.63 1013.58 1013.65 1013.86 1013.19 1013.06 1013.16 1013.26 1013.56 1013.67 1013.12 1014.33 1015.12 1015.65 1016.06 1016.11 1016.27 1016.23 1016.12
1020.55 1018.99 1016.28 1015.72 1016.28 1016.67 1016.45 1015.78 1015.16 1014.51 1013.99 1013.79 1013.74 1013.88 1014.08 1014.25 1014.60 1014.58 1014.89 1015.23 1015.09 1015.23 1015.58 1015.92 1015.79 1015.15 1014.69 1014.90 1014.67 1014.40 1014.14 1014.31 1014.20 1014.37 1013.51 1013.53 1013.49 1015.10 1015.76 1015.98 1016.21 1016.33 1016.40 1016.30 1016.18
1021.21 1020.11 1018.42 1018.05 1018.76 1018.28 1017.81 1016.73 1015.79 1015.07 1014.63 1014.43 1014.35 1014.38 1014.51 1014.72 1015.15 1014.98 1015.29 1015.65 1015.71 1015.84 1016.08 1016.15 1016.04 1015.54 1015.04 1014.87 1014.92 1014.88 1015.01 1015.05 1014.83 1014.72 1013.92 1013.75 1013.99 1015.20 1015.54 1015.76 1015.94 1016.20 1016.30 1016.13 1015.89
1022.00 1021.99 1022.01 1020.22 1019.49 1019.53 1019.00 1018.01 1017.03 1016.13 1015.53 1015.17 1014.86 1014.77 1014.90 1015.11 1015.29 1015.46 1015.62 1015.85 1016.07 1016.47 1016.67 1016.80 1016.54 1016.42 1015.91 1015.81 1015.74 1015.30 1015.12 1015.17 1015.05 1014.89 1014.58 1014.17 1014.59 1014.86 1015.27 1015.55 1015.99 1016.34 1016.31 1016.14 1015.91
1023.22 1023.04 1022.55 1021.53 1020.84 1020.07 1019.41 1018.63 1017.95 1017.40 1016.95 1016.03 1015.76 1015.52 1015.51 1015.58 1015.52 1015.57 1015.84 1016.14 1016.04 1016.66 1017.01 1017.57 1017.20 1017.18 1016.40 1016.04 1015.85 1015.41 1015.32 1015.30 1015.16 1015.05 1015.01 1015.14 1014.97 1015.32 1015.77 1015.99 1016.26 1016.44 1016.49 1016.31 1016.02
1024.39 1024.16 1023.49 1021.95 1021.12 1020.48 1019.86 1019.45 1018.81 1018.43 1017.50 1017.09 1017.02 1016.44 1016.21 1016.30 1016.21 1015.89 1015.86 1016.05 1016.42 1016.68 1017.18 1017.68 1017.66 1017.68 1016.85 1016.76 1016.24 1015.42 1014.68 1014.65 1014.72 1015.02 1014.96 1014.99 1015.14 1015.77 1016.02 1016.28 1016.46 1016.29 1016.14 1015.96 1015.95
Wind_Speed
20 20 19 18 16 15 14 13 11 10 10 10 9 8 8 7 6 3 6 4 6 11 7 7 3 3 2 3 2 2 2 4 4 5 2 4 9 1 2 2 3 5 2 3 14
21 21 20 19 18 17 16 14 12 11 10 9 9 8 7 6 2 6 3 7 13 13 7 8 7 5 3 2 1 1 3 5 1 2 6 11 5 10 2 4 5 3 4 9 15
22 21 20 20 19 17 16 15 14 12 10 9 8 7 6 4 3 2 3 11 11 7 6 4 6 3 3 2 2 2 2 3 3 7 7 8 8 1 1 4 6 6 7 13 15
23 22 22 21 20 18 17 16 14 13 11 9 8 7 6 3 2 1 1 12 10 7 7 6 4 4 3 5 4 3 4 3 3 3 3 5 8 5 4 2 4 3 8 15 16
23 23 23 21 21 19 17 16 15 13 11 9 8 6 3 2 5 3 12 13 9 6 6 5 4 4 5 4 5 5 2 5 6 8 7 4 9 4 6 5 5 5 12 14 14
22 22 23 23 22 20 17 15 13 11 9 7 6 5 2 3 5 6 11 11 9 6 6 4 3 2 4 3 3 5 3 5 5 6 4 4 1 5 7 5 5 2 9 16 16
23 23 22 22 21 20 18 15 11 10 7 5 4 3 2 7 6 7 11 6 7 6 6 4 3 2 4 3 2 1 4 5 6 3 3 7 4 8 5 3 8 8 6 8 14
24 24 24 23 22 21 20 17 11 6 3 4 4 2 7 2 3 7 7 4 4 3 3 5 3 2 1 4 1 2 2 5 2 3 2 5 6 8 3 5 11 11 9 9 12
26 25 25 23 23 22 19 13 4 5 5 6 3 2 7 0 4 5 9 7 7 4 3 4 2 2 3 3 3 2 3 3 3 1 1 4 5 3 4 7 12 12 10 8 8
27 27 25 25 23 20 16 2 5 5 4 3 0 3 5 1 3 6 4 8 5 8 5 4 3 4 3 3 2 4 4 2 5 3 2 3 10 4 8 4 5 6 5 8 10
29 28 27 25 23 17 5 2 0 2 2 6 4 4 4 2 3 4 5 6 3 3 6 2 6 10 8 6 2 5 3 6 7 5 4 5 5 8 10 13 13 14 13 12 12
29 30 28 26 23 14 2 5 4 3 10 12 17 12 7 4 4 4 10 7 5 8 4 4 10 8 5 6 6 6 6 8 8 5 9 4 2 10 12 13 13 13 14 12 13
29 29 29 26 23 2 3 6 6 6 4 5 4 3 2 11 9 7 11 6 5 8 10 11 4 6 9 6 7 7 7 4 4 4 2 5 5 7 10 13 14 15 13 14 14
29 28 27 26 2 3 2 6 8 5 3 5 2 2 3 4 6 10 9 5 4 13 7 7 6 9 8 10 9 8 9 5 3 6 6 4 5 6 8 11 13 13 14 15 17
31 29 23 10 1 2 7 12 4 3 5 6 4 5 3 2 5 2 4 5 12 9 7 9 7 9 8 13 10 6 7 7 5 7 5 6 5 7 6 7 10 11 12 13 14
32 29 17 1 1 2 11 10 2 0 4 4 4 6 1 3 3 2 4 2 1 6 3 8 0 4 8 3 10 4 5 3 2 4 8 9 10 9 6 5 7 8 11 12 13
31 25 6 3 7 15 9 1 1 3 6 7 6 8 2 7 7 8 4 4 4 7 11 13 12 2 4 7 4 4 6 7 8 8 9 6 9 6 8 7 7 7 9 11 12
33 13 1 2 10 7 2 2 3 2 3 3 5 5 4 10 5 9 5 5 8 4 3 7 11 6 1 7 8 9 10 8 12 11 10 3 7 8 8 8 6 6 6 9 12
22 4 3 9 9 3 2 1 1 2 2 5 4 3 2 4 5 4 7 4 5 11 3 2 5 1 6 2 3 5 7 3 3 2 6 5 5 4 7 6 5 6 8 10 11
5 4 3 15 7 2 2 2 2 3 2 2 2 2 2 5 4 3 3 2 3 10 2 6 6 6 4 2 9 1 4 3 2 6 10 6 6 5 15 7 3 4 7 8 10
3 4 4 14 1 4 0 1 3 2 1 2 1 1 1 0 0 1 1 4 2 6 9 8 7 9 8 6 6 2 3 3 2 4 7 11 4 6 11 6 3 2 4 7 9
4 4 7 8 2 2 1 4 4 3 1 0 2 2 2 2 2 2 1 3 7 2 2 5 4 9 12 6 2 7 3 3 5 5 1 4 2 7 7 4 1 1 3 6 7
6 4 4 5 2 2 4 3 3 4 2 1 2 1 2 1 1 5 4 2 6 3 3 5 4 3 3 2 3 6 3 4 5 2 10 9 2 8 5 4 3 3 4 6 7
3 5 4 6 2 3 5 2 5 4 1 1 1 2 3 1 3 5 5 1 4 2 6 1 3 6 8 2 1 3 4 5 3 4 4 8 4 9 10 8 5 3 6 8 9
4 2 1 5 2 5 2 3 4 4 5 4 1 2 2 2 2 1 2 1 1 2 2 0 5 4 10 9 6 8 9 8 10 10 9 9 11 8 10 10 2 4 7 10 12
3 3 2 3 4 4 0 1 3 4 4 3 2 2 2 3 2 2 4 3 4 4 2 2 3 2 6 7 8 12 11 11 12 12 13 13 16 5 3 2 3 5 7 10 11
1 1 2 1 3 3 0 2 1 6 3 4 7 4 2 2 5 6 5 1 1 3 6 4 4 3 4 2 5 9 11 14 8 7 8 9 2 6 4 4 5 8 12 11 9
Wind_Direction
358 356 354 350 347 344 341 338 335 328 318 310 310 312 317 323 306 189 227 205 170 154 138 130 116 114 105 107 109 166 143 181 185 201 2 352 350 100 304 207 176 188 284 22 144
355 354 352 348 344 341 338 335 331 324 316 310 307 308 312 325 267 239 255 158 144 156 130 147 139 141 103 99 102 174 204 194 205 248 312 321 322 331 281 210 200 196 88 131 150
353 352 350 346 342 339 335 330 325 319 311 302 296 297 300 294 262 88 129 169 156 160 126 131 126 149 122 159 137 148 220 188 217 249 281 310 305 340 209 220 238 228 172 161 170
350 349 346 343 339 336 332 326 320 315 307 297 288 285 293 220 123 95 142 158 153 139 121 132 139 132 135 164 155 214 240 226 281 231 273 284 302 310 198 294 201 236 178 167 184
346 346 344 340 336 333 328 323 316 310 302 296 290 292 240 280 246 37 136 137 137 152 158 150 153 142 142 153 151 210 231 204 257 269 251 273 258 301 263 257 309 155 164 175 193
344 342 339 338 335 331 326 319 311 306 298 289 280 283 212 257 119 139 140 146 157 153 161 161 146 167 120 151 222 181 253 278 271 263 205 216 263 195 249 253 289 192 193 181 196
343 340 338 336 334 332 327 320 309 301 288 268 258 260 228 253 124 145 153 175 172 168 154 183 153 178 149 164 157 159 282 293 223 226 237 183 172 218 223 219 244 256 222 212 205
341 340 338 336 335 332 330 324 308 284 231 190 198 230 255 168 132 156 176 141 182 157 132 140 154 133 235 122 90 239 205 256 173 195 70 229 238 237 229 224 235 234 227 224 215
340 338 337 336 336 334 331 328 75 123 130 148 170 232 268 3 221 181 171 174 155 155 191 118 121 92 143 171 222 41 242 210 292 34 107 229 237 242 296 277 257 238 246 244 246
339 337 336 335 335 332 327 248 95 117 121 199 217 266 243 206 158 132 172 142 150 142 128 163 139 174 136 205 243 127 147 214 267 151 303 209 258 313 357 0 333 7 334 332 322
338 336 335 334 334 333 332 171 282 130 186 230 229 242 282 241 173 153 160 131 110 131 184 128 215 221 217 212 236 221 225 257 264 229 266 205 260 35 52 63 61 57 40 23 18
337 335 335 333 330 328 252 78 87 329 299 239 252 258 269 350 284 148 166 170 175 201 144 195 248 234 206 186 201 212 246 256 278 227 215 176 169 70 56 57 62 65 58 35 24
336 335 334 333 323 322 21 78 343 182 268 309 221 233 228 196 228 207 181 148 180 189 206 222 231 136 184 186 200 237 230 216 265 123 159 152 188 143 79 64 57 48 46 44 34
337 337 335 328 61 331 79 351 332 205 326 288 17 59 126 146 217 196 183 161 198 226 188 234 243 234 219 242 220 252 210 211 188 191 203 238 197 131 118 83 59 44 35 25 19
339 338 340 359 1 58 327 327 325 212 327 1 38 139 125 238 301 154 183 180 218 179 182 210 204 200 209 224 181 251 176 209 200 206 197 179 230 135 208 86 57 46 40 33 26
340 340 339 42 283 324 318 310 192 197 253 7 26 353 1 25 18 49 170 69 143 173 232 253 204 215 246 198 203 112 140 88 103 180 226 202 227 170 177 129 90 70 41 24 15
338 339 352 311 331 324 315 7 115 205 357 5 350 340 13 359 26 9 54 72 290 224 221 230 239 253 227 237 172 185 197 219 218 214 251 176 210 36 129 103 79 42 28 23 20
334 331 302 258 318 312 334 69 211 21 358 352 339 322 60 11 31 26 82 57 28 352 228 242 239 221 94 245 248 200 219 235 251 245 251 162 207 150 117 96 67 49 28 27 26
324 336 331 344 339 304 57 111 219 202 286 326 319 29 38 17 359 88 63 48 44 7 321 297 242 47 88 40 310 150 213 357 165 63 247 172 103 129 133 101 70 42 33 20 13
334 323 304 339 342 27 72 231 226 234 282 222 239 352 320 8 8 21 127 54 40 44 343 28 297 22 344 200 64 44 81 193 191 230 240 196 197 172 180 145 99 45 22 11 5
1 349 3 342 301 48 80 289 305 302 284 339 193 166 129 261 208 101 79 72 32 297 22 356 351 306 316 22 0 4 149 70 321 309 269 251 200 121 147 137 123 57 25 8 2
353 315 359 334 37 30 74 318 297 288 3 132 148 172 194 167 109 107 95 27 355 329 139 177 183 249 261 332 335 297 268 207 234 239 87 316 236 140 130 143 182 5 5 359 352
344 290 335 323 55 27 326 296 282 346 327 320 194 23 58 179 172 146 161 163 33 79 153 168 192 267 170 188 188 219 157 110 87 71 233 245 204 166 165 214 223 292 346 337 339
336 325 342 39 32 24 356 327 315 317 269 26 112 124 124 167 320 158 154 194 356 84 53 209 219 241 248 358 51 216 213 182 194 205 244 239 259 190 228 266 283 310 340 340 340
8 62 40 329 43 344 283 315 315 321 10 4 137 185 149 191 195 210 152 191 198 357 59 125 258 249 262 267 256 255 251 227 224 250 245 278 245 269 285 289 278 333 331 327 324
357 350 359 285 290 291 242 122 343 344 319 2 8 38 111 205 220 193 184 215 239 151 147 11 266 250 269 271 277 267 261 255 252 254 255 262 271 288 152 174 276 293 297 299 303
45 105 283 327 311 275 186 12 14 350 236 72 354 311 258 334 309 280 225 207 311 207 191 203 219 215 255 334 302 266 255 244 238 225 240 240 272 163 195 248 282 293 299 301 302